Location: Cutler
(25.6150°N, 80.3110°W)
Time: 15:34:15
(UTC-04:00)

Envisat - Visible Passes

Search period start: 23 June 2018 00:00
Search period end: 03 July 2018 00:00
Orbit: 764 x 766 km, 98.2° (Epoch: 23 June)

Date Brightness Start Highest point End Pass type
(mag) Time Alt. Az. Time Alt. Az. Time Alt. Az.
23 Jun 3.7 21:05:16 10° S 21:10:13 56° W 21:15:12 10° NNW visible
24 Jun 5.9 22:11:49 10° WSW 22:12:44 10° W 22:13:40 10° W visible
25 Jun 4.8 21:31:31 10° SSW 21:35:50 28° W 21:40:11 10° NW visible
26 Jun 3.2 20:54:01 10° S 20:59:04 75° WSW 21:04:09 10° NNW visible
27 Jun 5.6 21:58:48 10° SW 22:01:31 14° W 22:04:14 10° WNW visible
28 Jun 4.4 21:19:58 10° SSW 21:24:39 37° W 21:29:20 10° NNW visible
29 Jun 3.0 20:42:51 10° SSE 20:47:55 83° ENE 20:53:00 10° N visible
30 Jun 5.4 21:46:44 10° SW 21:50:17 19° W 21:53:53 10° NW visible
01 Jul 3.9 21:08:35 10° S 21:13:29 50° W 21:18:23 10° NNW visible
